Weather Roundup
Issued by NWS Chicago, IL

Home | Current Version | Previous Version | Text Only | Print | Product List | Glossary Off
Versions: 1 2 3 4 5 6 7 8 9 10 11 12 13 14 15 16 17 18 19 20 21 22 23 24 25 26 27 28 29 30 31 32 33 34 35 36 37 38 39 40 41 42 43 44 45 46 47 48 49 50

000
NZUS59 KLOT 090712
HRRLOT

CHICAGO AREA WEATHER ROUNDUP
NATIONAL WEATHER SERVICE CHICAGO/ROMEOVILLE IL
100 AM CST FRI DEC 09 2016

NOTE: "FAIR" INDICATES FEW OR NO CLOUDS BELOW 12,000 FEET WITH NO
SIGNIFICANT WEATHER AND/OR OBSTRUCTIONS TO VISIBILITY.

* THESE STATIONS ARE NOT UNDER NWS QUALITY CONTROL. THEY ALSO MAY NOT
  REPORT WEATHER SUCH AS PRECIPITATION OR FOG.

ILZ005-006-012>014-019>023-090800-
NORTHEAST ILLINOIS

CITY           SKY/WX    TMP DP  RH WIND       PRES   REMARKS
OHARE          PTCLDY    21  16  81 W13       30.41S WCI   9
MIDWAY         PTCLDY    22  15  75 W10       30.42S WCI  11
AURORA         PTCLDY    20  14  77 W12       30.44S WCI   8
LANSING*       MOCLDY    21  18  88 W8        30.43S WCI  11
JOLIET*        MOCLDY    22  17  81 W7        30.46R WCI  14
WAUKEGAN       MOCLDY    21  16  81 W8        30.38S WCI  11
DUPAGE AIRPORT PTCLDY    20  14  77 W15       30.42S WCI   6
WHEELING       CLEAR     21  15  78 W10       30.43R WCI  10
KANKAKEE*      PTCLDY    22  16  76 W12       30.46S WCI  10
MORRIS*        MOCLDY    21  16  81 W9        30.45S WCI  11
LEWIS AIRPORT* CLEAR     20  18  92 W10       30.44S WCI   9
NORTHERLY ISL    N/A     24  18  77 W14         N/A  WCI  12
$$

WIZ051-052-058>065-066-070>072-090800-
SOUTHEAST WISCONSIN

CITY           SKY/WX    TMP DP  RH WIND       PRES   REMARKS
MILWAUKEE      MOCLDY    24  15  68 NW10      30.38R WCI  14
KENOSHA*       PTCLDY    20  15  81 W7        30.39R WCI  11
RACINE*        CLOUDY    24  15  68 W9        30.40R WCI  14
BURLINGTON     CLOUDY    27  23  85 W6        30.40R WCI  20
WAUKESHA       CLEAR     21  18  86 W9        30.39R WCI  11
WEST BEND      PTCLDY    23  18  80 NW13      30.36S WCI  11
$$

INZ001>003-010>013-019-020-090800-
NORTHWEST INDIANA

CITY           SKY/WX    TMP DP  RH WIND       PRES   REMARKS
GARY*          MOCLDY    24  18  78 W10G17    30.43S WCI  14
MICHIGAN CITY* NOT AVBL
RENSSELAER*    NOT AVBL
VALPARAISO     CLOUDY    23  16  74 MISG      30.42S
$$

LMZ740>746-090800-
SOUTHERN LAKE MICHIGAN

STATION/POSITION TIME  SKY/WX   TEMP WIND        PRES    VSBY
                                AIR  DIR/SP/G
                 (UTC)          (F)  (DEG/KT/KT) (MB)    (MI)
HARRISON CRIB    0640            24  270/ 21/ 24   N/A
BURNHAM HARBOR   0700            24  250/ 12/ 17   N/A
CALUMET HARBOR   0642            22  250/  5/  9 1029.3S
BURNS HARBOR     0700            27  280/ 17/ 23 1029.8
MICHIGAN CITY    NOT AVBL
$$

ABBREVIATIONS USED IN REMARKS
   TC - TEMPERATURE IN CELSIUS
  WCI - WIND CHILL INDEX
   HX - HEAT INDEX
  VSB - VISIBILITY
$$




USA.gov is the U.S. government's official web portal to all federal, state and local government web resources and services.